Language: 


Des rapports , des résumés tant et plus, au choix de chacun....


Données Historiques de Météogheer
Journalier Rapport pour Février 23, 2018 Unitée:  Impériale    Métrique   Les deux
Suivant Jour »
Journalier Hebdomadaire Mensuel Annuel Sur mesure
  Max: Min: Moyenne:
Température: 40.6 °F 28.4 °F 33.6 °F
Point de rosée: 26.6 °F 17.6 °F 21.7 °F
Humidité: 80% 45% 63%
Vent: 17.2mph 0mph 7.6mph
Rafales: 18.6mph - -
Vent- - ENE
Pression: 30.2 in 30 in -
Pluie: 0 in    
Historical Graphs
 
 
Données tabulaires pour Février 23, 2018
Heure Température Point de rosée Pression Vent Vent Rafales Humidité Pluie Taux (Horaire) Conditions
00:01 32.9 °F 24.8 °F 30.2 in ENE 6.5 mph 12.5 mph 69% 0 in
00:06 32.9 °F 24.8 °F 30.2 in ENE 7.2 mph 12.5 mph 69% 0 in
00:11 32.9 °F 24.8 °F 30.2 in ENE 8.1 mph 13 mph 69% 0 in
00:16 32.7 °F 23 °F 30.2 in ENE 7.4 mph 13 mph 69% 0 in
00:21 32.5 °F 23 °F 30.2 in NE 5.6 mph 8.1 mph 69% 0 in
00:26 32.5 °F 24.8 °F 30.2 in ENE 8.1 mph 8.5 mph 70% 0 in
00:31 32.5 °F 24.8 °F 30.2 in ENE 7.4 mph 8.5 mph 70% 0 in
00:36 32.4 °F 23 °F 30.2 in ENE 5.8 mph 10.3 mph 70% 0 in
00:41 32.2 °F 23 °F 30.2 in NNE 6 mph 10.3 mph 70% 0 in
00:46 32.2 °F 24.8 °F 30.2 in East 5.8 mph 9.8 mph 71% 0 in
00:51 32.2 °F 24.8 °F 30.2 in ENE 7.8 mph 9.8 mph 71% 0 in
00:56 32.2 °F 24.8 °F 30.2 in NE 5.6 mph 10.5 mph 71% 0 in
01:01 32.2 °F 24.8 °F 30.1 in ENE 5.4 mph 10.5 mph 71% 0 in
01:06 32 °F 23 °F 30.1 in NE 5.6 mph 8.7 mph 71% 0 in
01:11 31.8 °F 23 °F 30.1 in ENE 6.3 mph 8.7 mph 71% 0 in
01:16 31.8 °F 23 °F 30.1 in NE 5.4 mph 8.1 mph 71% 0 in
01:21 31.5 °F 23 °F 30.1 in ENE 3.6 mph 7.6 mph 72% 0 in
01:26 31.5 °F 23 °F 30.1 in ENE 7.6 mph 8.5 mph 72% 0 in
01:31 31.5 °F 23 °F 30.1 in ENE 4 mph 8.5 mph 72% 0 in
01:36 31.3 °F 23 °F 30.1 in NE 5.4 mph 8.1 mph 72% 0 in
01:42 31.1 °F 21.2 °F 30.1 in NE 3.8 mph 7.6 mph 73% 0 in
01:47 31.1 °F 21.2 °F 30.1 in NNE 6.5 mph 9.2 mph 73% 0 in
01:52 31.1 °F 21.2 °F 30.1 in NE 6 mph 9.2 mph 73% 0 in
01:57 31.1 °F 21.2 °F 30.1 in NE 7.4 mph 8.7 mph 73% 0 in
02:02 31.1 °F 21.2 °F 30.1 in NNE 7.4 mph 8.9 mph 73% 0 in
02:07 31.1 °F 23 °F 30.1 in NE 7.2 mph 8.9 mph 74% 0 in
02:12 31.1 °F 23 °F 30.1 in NNE 6 mph 10.5 mph 74% 0 in
02:17 30.7 °F 21.2 °F 30.1 in NNE 5.4 mph 10.5 mph 73% 0 in
02:22 30.6 °F 21.2 °F 30.1 in NNE 5.6 mph 6.5 mph 73% 0 in
02:27 30.4 °F 21.2 °F 30.1 in NE 7.4 mph 7.4 mph 74% 0 in
02:32 30.4 °F 21.2 °F 30.1 in NE 6.5 mph 7.4 mph 74% 0 in
02:37 30.2 °F 23 °F 30.1 in NE 4.9 mph 7.6 mph 75% 0 in
02:42 30.2 °F 23 °F 30.1 in NE 7.4 mph 8.7 mph 75% 0 in
02:47 30.2 °F 23 °F 30.1 in NNE 8.1 mph 11.2 mph 76% 0 in
02:52 30.4 °F 23 °F 30.1 in NE 7.6 mph 11.2 mph 75% 0 in
02:57 30.2 °F 23 °F 30.1 in NE 7.6 mph 9.4 mph 76% 0 in
03:02 30.2 °F 23 °F 30.1 in NE 8.5 mph 9.4 mph 75% 0 in
03:07 30 °F 23 °F 30.1 in NE 6 mph 8.5 mph 75% 0 in
03:12 29.8 °F 21.2 °F 30.1 in NNE 6.7 mph 8.5 mph 75% 0 in
03:17 29.8 °F 21.2 °F 30.1 in ENE 6.3 mph 8.5 mph 76% 0 in
03:22 29.8 °F 21.2 °F 30.1 in North 6 mph 8.5 mph 76% 0 in
03:27 29.7 °F 21.2 °F 30.1 in NNE 5.6 mph 8.7 mph 76% 0 in
03:32 29.7 °F 21.2 °F 30.1 in NNE 7.8 mph 8.7 mph 76% 0 in
03:37 29.5 °F 21.2 °F 30.1 in NNE 4 mph 8.7 mph 76% 0 in
03:42 29.5 °F 21.2 °F 30.1 in NE 7.6 mph 8.5 mph 76% 0 in
03:47 29.5 °F 23 °F 30.1 in NE 11 mph 11 mph 77% 0 in
03:53 29.7 °F 21.2 °F 30.1 in ENE 7.4 mph 12.1 mph 76% 0 in
03:58 29.7 °F 21.2 °F 30.1 in NE 7.6 mph 12.1 mph 76% 0 in
04:03 29.7 °F 21.2 °F 30.1 in NNE 7.4 mph 9.6 mph 76% 0 in
04:08 29.8 °F 21.2 °F 30.1 in NE 7.6 mph 9.6 mph 75% 0 in
04:13 29.8 °F 21.2 °F 30.1 in ENE 8.1 mph 9.2 mph 75% 0 in
04:18 29.8 °F 21.2 °F 30.1 in ENE 8.5 mph 9.8 mph 75% 0 in
04:23 29.8 °F 21.2 °F 30.1 in NE 7.4 mph 9.8 mph 75% 0 in
04:28 29.7 °F 21.2 °F 30.1 in East 5.8 mph 8.7 mph 75% 0 in
04:33 29.7 °F 21.2 °F 30.1 in NE 7.2 mph 8.7 mph 75% 0 in
04:38 29.7 °F 21.2 °F 30.1 in NE 6.5 mph 8.7 mph 75% 0 in
04:43 29.5 °F 21.2 °F 30.1 in NNE 6.5 mph 8.7 mph 75% 0 in
04:48 29.5 °F 21.2 °F 30.1 in ENE 4.7 mph 8.7 mph 75% 0 in
04:53 29.5 °F 21.2 °F 30.1 in ENE 7.8 mph 8.7 mph 75% 0 in
04:58 29.5 °F 21.2 °F 30.1 in NE 5.6 mph 8.1 mph 75% 0 in
05:03 29.5 °F 21.2 °F 30.1 in ENE 7.2 mph 8.1 mph 75% 0 in
05:08 29.5 °F 21.2 °F 30.1 in NE 8.5 mph 9.8 mph 75% 0 in
05:13 29.3 °F 21.2 °F 30.1 in NE 7.8 mph 9.8 mph 75% 0 in
05:18 29.3 °F 21.2 °F 30.1 in East 7.6 mph 8.1 mph 75% 0 in
05:23 29.3 °F 21.2 °F 30.1 in ENE 4.9 mph 7.8 mph 75% 0 in
05:28 29.3 °F 21.2 °F 30.1 in ENE 5.6 mph 8.5 mph 75% 0 in
05:33 29.1 °F 21.2 °F 30.1 in ENE 8.5 mph 8.5 mph 75% 0 in
05:38 29.1 °F 21.2 °F 30.1 in NE 5.4 mph 8.5 mph 75% 0 in
05:43 29.1 °F 21.2 °F 30.1 in ENE 5.4 mph 8.5 mph 76% 0 in
05:48 28.9 °F 21.2 °F 30.1 in ENE 5.6 mph 7.8 mph 76% 0 in
05:53 28.9 °F 21.2 °F 30.1 in NE 6 mph 7.4 mph 76% 0 in
05:58 28.9 °F 21.2 °F 30.1 in ENE 5.4 mph 7.6 mph 76% 0 in
06:03 28.9 °F 21.2 °F 30.1 in NE 6.5 mph 7.6 mph 76% 0 in
06:09 28.9 °F 21.2 °F 30.1 in ENE 5.8 mph 8.7 mph 76% 0 in
06:14 28.9 °F 21.2 °F 30.1 in NE 8.1 mph 8.7 mph 76% 0 in
06:19 28.9 °F 21.2 °F 30.1 in ENE 6.3 mph 10.5 mph 76% 0 in
06:24 28.9 °F 21.2 °F 30.1 in ENE 4 mph 10.5 mph 76% 0 in
06:29 29.1 °F 21.2 °F 30.1 in NE 9.4 mph 9.8 mph 76% 0 in
06:34 29.1 °F 21.2 °F 30.1 in East 8.5 mph 9.8 mph 75% 0 in
06:39 29.1 °F 21.2 °F 30.1 in NNE 5.6 mph 9.4 mph 75% 0 in
06:44 28.9 °F 21.2 °F 30.1 in ENE 6.3 mph 8.7 mph 75% 0 in
06:49 28.9 °F 21.2 °F 30.1 in NE 5.6 mph 8.7 mph 75% 0 in
06:54 28.9 °F 21.2 °F 30.1 in ESE 6.3 mph 8.5 mph 75% 0 in
06:59 28.8 °F 21.2 °F 30.1 in ENE 3.1 mph 8.5 mph 75% 0 in
07:04 28.8 °F 21.2 °F 30.1 in ENE 4 mph 8.5 mph 75% 0 in
07:09 28.8 °F 21.2 °F 30.1 in ENE 5.4 mph 7.6 mph 75% 0 in
07:14 28.6 °F 21.2 °F 30.1 in East 5.8 mph 7.6 mph 75% 0 in
07:19 28.6 °F 21.2 °F 30.1 in ENE 1.6 mph 6.3 mph 75% 0 in
07:24 28.6 °F 21.2 °F 30.1 in Calm   6.5 mph 75% 0 in
07:29 28.4 °F 21.2 °F 30.1 in East 4.3 mph 7.4 mph 76% 0 in
07:34 28.4 °F 21.2 °F 30.1 in NNE 4.9 mph 7.4 mph 76% 0 in
07:39 28.6 °F 21.2 °F 30.1 in NNE 6 mph 10.5 mph 77% 0 in
07:44 28.6 °F 21.2 °F 30.1 in NNE 8.1 mph 10.5 mph 77% 0 in
07:49 28.6 °F 21.2 °F 30.1 in NE 6 mph 8.1 mph 77% 0 in
07:54 28.6 °F 21.2 °F 30.1 in ENE 7.6 mph 8.5 mph 78% 0 in
08:00 28.6 °F 21.2 °F 30.1 in NE 5.6 mph 8.5 mph 78% 0 in
08:05 28.6 °F 21.2 °F 30.1 in ENE 7.8 mph 7.8 mph 78% 0 in
08:10 28.8 °F 21.2 °F 30.1 in ENE 4.9 mph 7.8 mph 78% 0 in
08:15 28.9 °F 23 °F 30.1 in NE 5.8 mph 8.7 mph 79% 0 in
08:20 29.1 °F 23 °F 30.1 in ENE 5.8 mph 8.7 mph 79% 0 in
08:25 29.3 °F 23 °F 30.1 in ENE 7.6 mph 8.1 mph 79% 0 in
08:30 29.5 °F 23 °F 30.1 in NNE 4.9 mph 7.6 mph 79% 0 in
08:35 29.7 °F 23 °F 30.1 in NE 6.9 mph 8.5 mph 79% 0 in
08:40 30 °F 23 °F 30.1 in ENE 7.8 mph 9.4 mph 80% 0 in
08:45 30.2 °F 23 °F 30.1 in NE 4.9 mph 10.1 mph 79% 0 in
08:50 30.4 °F 23 °F 30.1 in NNE 4.7 mph 10.1 mph 79% 0 in
08:55 30.7 °F 23 °F 30.1 in ENE 5.6 mph 12.5 mph 79% 0 in
09:00 30.9 °F 23 °F 30.1 in ENE 8.1 mph 12.5 mph 78% 0 in
09:06 31.1 °F 23 °F 30.1 in ENE 10.1 mph 13 mph 78% 0 in
09:11 31.5 °F 23 °F 30.1 in NE 9.8 mph 13.4 mph 78% 0 in
09:16 31.6 °F 24.8 °F 30.2 in NE 7.6 mph 13.4 mph 77% 0 in
09:21 31.8 °F 24.8 °F 30.2 in NE 7.4 mph 11 mph 77% 0 in
09:26 32 °F 24.8 °F 30.2 in ENE 7.8 mph 10.5 mph 77% 0 in
09:31 32.2 °F 26.6 °F 30.2 in ENE 8.5 mph 10.5 mph 76% 0 in
09:36 32.5 °F 26.6 °F 30.2 in ENE 5.6 mph 12.3 mph 76% 0 in
09:41 32.5 °F 26.6 °F 30.2 in East 7.8 mph 12.3 mph 75% 0 in
09:46 32.7 °F 26.6 °F 30.2 in ENE 8.5 mph 11 mph 74% 0 in
09:51 32.7 °F 26.6 °F 30.2 in ENE 12.8 mph 13.6 mph 74% 0 in
09:56 32.9 °F 26.6 °F 30.2 in ENE 10.3 mph 13.6 mph 73% 0 in
10:01 33.1 °F 26.6 °F 30.2 in NE 8.7 mph 13 mph 73% 0 in
10:06 33.4 °F 26.6 °F 30.2 in ENE 8.7 mph 11 mph 72% 0 in
10:11 33.6 °F 26.6 °F 30.2 in ENE 8.7 mph 11.9 mph 71% 0 in
10:17 33.6 °F 24.8 °F 30.1 in ENE 6 mph 11.9 mph 70% 0 in
10:21 34 °F 24.8 °F 30.1 in ENE 8.1 mph 11 mph 70% 0 in
10:27 34.2 °F 24.8 °F 30.1 in East 8.1 mph 12.3 mph 68% 0 in
10:32 34.3 °F 24.8 °F 30.1 in NNE 9.8 mph 12.3 mph 66% 0 in
10:37 34.5 °F 24.8 °F 30.1 in East 8.7 mph 11.9 mph 65% 0 in
10:42 34.9 °F 24.8 °F 30.1 in ENE 10.5 mph 12.8 mph 66% 0 in
10:47 34.9 °F 24.8 °F 30.1 in ENE 10.3 mph 13 mph 64% 0 in
10:52 35.1 °F 23 °F 30.1 in ENE 8.5 mph 14.5 mph 63% 0 in
10:57 35.1 °F 23 °F 30.1 in ENE 7.6 mph 14.5 mph 62% 0 in
11:02 35.4 °F 23 °F 30.1 in ENE 7.8 mph 15.9 mph 62% 0 in
11:07 35.8 °F 24.8 °F 30.1 in ENE 6.9 mph 15.9 mph 62% 0 in
11:12 36 °F 23 °F 30.1 in ENE 10.3 mph 12.1 mph 61% 0 in
11:17 36.1 °F 24.8 °F 30.1 in ENE 10.3 mph 10.3 mph 60% 0 in
11:22 36.3 °F 23 °F 30.1 in ENE 6 mph 13.2 mph 59% 0 in
11:27 36.3 °F 23 °F 30.1 in ESE 6.5 mph 13.2 mph 58% 0 in
11:32 36.5 °F 23 °F 30.1 in ENE 10.7 mph 14.5 mph 57% 0 in
11:37 36.7 °F 23 °F 30.1 in NE 7.4 mph 14.5 mph 57% 0 in
11:42 36.9 °F 23 °F 30.1 in ENE 8.5 mph 13.2 mph 56% 0 in
11:47 36.9 °F 23 °F 30.1 in East 7.8 mph 12.1 mph 56% 0 in
11:52 37 °F 23 °F 30.1 in East 10.1 mph 12.1 mph 56% 0 in
11:57 37 °F 23 °F 30.1 in ESE 11 mph 13.4 mph 55% 0 in
12:02 37.2 °F 23 °F 30.1 in NE 9.8 mph 13.4 mph 54% 0 in
12:07 37.4 °F 23 °F 30.1 in East 8.1 mph 13 mph 55% 0 in
12:12 37.6 °F 23 °F 30.1 in East 9.4 mph 13 mph 55% 0 in
12:17 37.8 °F 23 °F 30.1 in ENE 14.1 mph 14.1 mph 54% 0 in
12:22 37.9 °F 23 °F 30.1 in NE 7.6 mph 14.1 mph 54% 0 in
12:27 37.9 °F 23 °F 30.1 in ENE 10.3 mph 14.1 mph 53% 0 in
12:32 38.1 °F 23 °F 30.1 in East 12.8 mph 13.2 mph 53% 0 in
12:37 38.1 °F 23 °F 30.1 in East 13 mph 13.2 mph 53% 0 in
12:42 37.9 °F 23 °F 30.1 in ESE 10.7 mph 13.2 mph 53% 0 in
12:47 38.1 °F 23 °F 30.1 in ENE 13 mph 13 mph 52% 0 in
12:52 38.1 °F 23 °F 30.1 in East 11 mph 13.2 mph 52% 0 in
12:57 38.3 °F 23 °F 30.1 in East 7.8 mph 14.5 mph 53% 0 in
13:02 38.3 °F 23 °F 30.1 in East 12.5 mph 14.5 mph 53% 0 in
13:08 38.5 °F 23 °F 30.1 in East 7.6 mph 13.2 mph 53% 0 in
13:13 38.7 °F 23 °F 30.1 in ESE 10.7 mph 14.8 mph 53% 0 in
13:18 38.5 °F 23 °F 30.1 in ENE 7.6 mph 14.8 mph 52% 0 in
13:23 38.7 °F 23 °F 30.1 in East 12.3 mph 14.5 mph 52% 0 in
13:28 38.7 °F 23 °F 30.1 in ENE 12.3 mph 13.9 mph 52% 0 in
13:33 38.8 °F 23 °F 30.1 in East 10.3 mph 12.8 mph 52% 0 in
13:38 38.8 °F 23 °F 30.1 in ENE 10.1 mph 13 mph 53% 0 in
13:43 39.2 °F 23 °F 30.1 in East 6.3 mph 13 mph 53% 0 in
13:48 39.4 °F 23 °F 30.1 in East 10.1 mph 12.8 mph 53% 0 in
13:53 39.2 °F 23 °F 30.1 in ENE 10.7 mph 12.8 mph 52% 0 in
13:58 39.2 °F 23 °F 30.1 in ENE 11 mph 12.3 mph 52% 0 in
14:03 39.2 °F 23 °F 30.1 in ENE 6.5 mph 14.3 mph 53% 0 in
14:08 39.4 °F 23 °F 30.1 in NE 6.3 mph 18.6 mph 53% 0 in
14:14 39.4 °F 23 °F 30.1 in ENE 12.3 mph 18.6 mph 53% 0 in
14:19 39.4 °F 23 °F 30.1 in NE 10.5 mph 14.1 mph 52% 0 in
14:24 39.4 °F 23 °F 30.1 in ENE 4.7 mph 13.2 mph 52% 0 in
14:29 39.6 °F 23 °F 30.1 in ENE 9.6 mph 13 mph 52% 0 in
14:34 39.7 °F 23 °F 30.1 in ESE 7.4 mph 13 mph 52% 0 in
14:36 39.9 °F 23 °F 30.1 in NE 8.9 mph 10.7 mph 52% 0 in
14:41 39.7 °F 23 °F 30.1 in ESE 12.3 mph 17.4 mph 51% 0 in
14:46 39.7 °F 23 °F 30.1 in ENE 9.8 mph 17.4 mph 51% 0 in
14:51 39.9 °F 23 °F 30.1 in ENE 8.9 mph 13.2 mph 51% 0 in
14:56 39.9 °F 23 °F 30.1 in East 10.1 mph 13.2 mph 50% 0 in
15:01 40.3 °F 23 °F 30.1 in East 10.3 mph 13 mph 51% 0 in
15:06 40.1 °F 23 °F 30.1 in East 8.7 mph 13.2 mph 50% 0 in
15:11 40.3 °F 23 °F 30.1 in East 10.1 mph 13.2 mph 50% 0 in
15:16 40.3 °F 23 °F 30.1 in ENE 11 mph 16.1 mph 49% 0 in
15:21 40.3 °F 23 °F 30.1 in ENE 5.4 mph 16.1 mph 50% 0 in
15:26 40.3 °F 23 °F 30.1 in NE 10.7 mph 14.5 mph 50% 0 in
15:31 40.3 °F 23 °F 30 in ENE 9.4 mph 12.8 mph 49% 0 in
15:36 40.3 °F 23 °F 30 in NE 10.3 mph 12.8 mph 49% 0 in
15:41 40.6 °F 23 °F 30 in East 4.3 mph 12.8 mph 50% 0 in
15:46 40.5 °F 23 °F 30.1 in NE 14.3 mph 14.8 mph 48% 0 in
15:51 40.3 °F 23 °F 30.1 in NE 17.2 mph 17.4 mph 48% 0 in
15:56 40.1 °F 23 °F 30.1 in NE 11.4 mph 17.4 mph 48% 0 in
16:02 39.9 °F 21.2 °F 30 in ENE 10.3 mph 17.7 mph 47% 0 in
16:07 39.9 °F 21.2 °F 30 in NNE 10.7 mph 17.7 mph 48% 0 in
16:12 40.1 °F 23 °F 30 in ENE 11.2 mph 13 mph 48% 0 in
16:17 39.9 °F 21.2 °F 30 in ENE 10.7 mph 13 mph 48% 0 in
16:22 39.9 °F 21.2 °F 30 in NE 11 mph 14.5 mph 47% 0 in
16:27 39.7 °F 21.2 °F 30 in East 15.7 mph 15.7 mph 45% 0 in
16:32 39.6 °F 21.2 °F 30 in NE 9.8 mph 15.7 mph 46% 0 in
16:37 39.4 °F 21.2 °F 30 in NE 6.5 mph 15.7 mph 46% 0 in
16:42 39.4 °F 21.2 °F 30 in NE 10.7 mph 13.9 mph 46% 0 in
16:47 39.2 °F 19.4 °F 30 in ESE 10.1 mph 13.9 mph 45% 0 in
16:52 39 °F 21.2 °F 30 in ENE 9.8 mph 12.3 mph 47% 0 in
16:57 39 °F 21.2 °F 30 in East 7.6 mph 11 mph 47% 0 in
17:02 38.8 °F 21.2 °F 30 in East 10.1 mph 11 mph 47% 0 in
17:07 38.7 °F 19.4 °F 30 in NE 6.5 mph 13.9 mph 46% 0 in
17:12 38.5 °F 19.4 °F 30 in ENE 11 mph 14.1 mph 46% 0 in
17:17 38.3 °F 19.4 °F 30 in ENE 9.6 mph 14.1 mph 45% 0 in
17:22 38.1 °F 19.4 °F 30 in ENE 6.3 mph 12.3 mph 45% 0 in
17:27 37.9 °F 19.4 °F 30 in NE 7.8 mph 13.4 mph 45% 0 in
17:32 37.9 °F 19.4 °F 30 in East 9.4 mph 13.4 mph 45% 0 in
17:37 37.6 °F 19.4 °F 30 in NE 6.5 mph 12.5 mph 45% 0 in
17:42 37.4 °F 19.4 °F 30 in East 5.4 mph 12.3 mph 46% 0 in
17:47 37.2 °F 19.4 °F 30 in NE 8.1 mph 12.3 mph 46% 0 in
17:52 36.9 °F 19.4 °F 30 in ENE 10.5 mph 10.7 mph 46% 0 in
17:57 36.7 °F 19.4 °F 30 in East 7.6 mph 12.5 mph 46% 0 in
18:02 36.3 °F 19.4 °F 30 in ENE 6 mph 12.5 mph 47% 0 in
18:07 36.1 °F 19.4 °F 30 in East 8.7 mph 10.5 mph 47% 0 in
18:12 35.8 °F 17.6 °F 30 in ENE 9.8 mph 10.7 mph 47% 0 in
18:17 35.6 °F 19.4 °F 30 in ENE 6.9 mph 10.7 mph 48% 0 in
18:22 35.4 °F 19.4 °F 30 in NE 7.8 mph 10.1 mph 49% 0 in
18:28 35.2 °F 17.6 °F 30 in ENE 7.4 mph 10.1 mph 49% 0 in
18:33 35.1 °F 19.4 °F 30 in NE 7.4 mph 9.8 mph 50% 0 in
18:38 35.1 °F 19.4 °F 30 in ENE 6 mph 10.5 mph 50% 0 in
18:43 34.9 °F 19.4 °F 30 in ENE 6.5 mph 10.5 mph 50% 0 in
18:48 34.9 °F 19.4 °F 30.1 in East 8.1 mph 9.8 mph 50% 0 in
18:53 34.7 °F 19.4 °F 30.1 in ENE 5.4 mph 11 mph 50% 0 in
18:58 34.5 °F 17.6 °F 30.1 in NNE 7.4 mph 11 mph 50% 0 in
19:03 34.5 °F 17.6 °F 30 in ENE 6.3 mph 10.1 mph 50% 0 in
19:08 34.3 °F 17.6 °F 30 in ENE 4.9 mph 9.8 mph 50% 0 in
19:13 34.3 °F 19.4 °F 30 in NE 7.4 mph 10.3 mph 51% 0 in
19:18 34.2 °F 19.4 °F 30.1 in ENE 7.2 mph 10.3 mph 51% 0 in
19:23 34 °F 17.6 °F 30.1 in ENE 4.9 mph 8.1 mph 51% 0 in
19:28 34 °F 19.4 °F 30.1 in ENE 4 mph 7.6 mph 52% 0 in
19:33 33.8 °F 19.4 °F 30.1 in ENE 4.3 mph 7.2 mph 52% 0 in
19:38 33.6 °F 19.4 °F 30.1 in ENE 4.7 mph 7.2 mph 53% 0 in
19:43 33.3 °F 19.4 °F 30.1 in ENE 3.4 mph 7.2 mph 53% 0 in
19:48 33.1 °F 19.4 °F 30.1 in ENE 5.4 mph 5.4 mph 54% 0 in
19:53 33.1 °F 19.4 °F 30.1 in ENE 4.9 mph 7.2 mph 54% 0 in
19:58 33.1 °F 19.4 °F 30.1 in ENE 6.3 mph 7.8 mph 55% 0 in
20:03 32.9 °F 19.4 °F 30.1 in ENE 5.8 mph 7.8 mph 55% 0 in
20:08 33.1 °F 19.4 °F 30.1 in ENE 5.8 mph 8.7 mph 55% 0 in
20:13 33.1 °F 19.4 °F 30.1 in ENE 6.5 mph 8.7 mph 55% 0 in
20:18 33.1 °F 19.4 °F 30.1 in ENE 6 mph 8.7 mph 56% 0 in
20:23 33.1 °F 19.4 °F 30.1 in ENE 6.3 mph 8.7 mph 56% 0 in
20:28 33.1 °F 19.4 °F 30.1 in East 4 mph 8.7 mph 56% 0 in
20:33 32.9 °F 19.4 °F 30.1 in NE 4 mph 7.8 mph 56% 0 in
20:38 33.1 °F 19.4 °F 30.1 in East 5.4 mph 7.8 mph 56% 0 in
20:44 32.9 °F 19.4 °F 30.1 in ENE 6.3 mph 7.8 mph 56% 0 in
20:49 32.9 °F 19.4 °F 30.1 in ENE 5.8 mph 8.5 mph 56% 0 in
20:54 32.7 °F 19.4 °F 30.1 in NE 6.3 mph 8.5 mph 57% 0 in
20:59 32.7 °F 19.4 °F 30.1 in ENE 6.5 mph 8.5 mph 57% 0 in
21:04 32.5 °F 19.4 °F 30.1 in NE 8.7 mph 8.7 mph 58% 0 in
21:09 32.5 °F 19.4 °F 30.1 in NE 7.8 mph 8.7 mph 58% 0 in
21:14 32.5 °F 19.4 °F 30.1 in NE 6.5 mph 8.7 mph 58% 0 in
21:19 32.4 °F 19.4 °F 30.1 in ENE 7.6 mph 8.5 mph 58% 0 in
21:24 32.4 °F 19.4 °F 30.1 in ENE 7.6 mph 10.5 mph 59% 0 in
21:29 32.5 °F 21.2 °F 30.1 in ENE 7.2 mph 10.5 mph 59% 0 in
21:34 32.4 °F 21.2 °F 30.1 in ENE 7.4 mph 9.2 mph 60% 0 in
21:39 32.2 °F 21.2 °F 30.1 in ENE 7.8 mph 10.1 mph 60% 0 in
21:44 32.2 °F 21.2 °F 30.1 in ENE 6 mph 10.1 mph 60% 0 in
21:49 32.2 °F 21.2 °F 30.1 in ENE 7.6 mph 9.6 mph 60% 0 in
21:54 32 °F 19.4 °F 30.1 in NE 7.8 mph 9.6 mph 61% 0 in
21:59 32 °F 19.4 °F 30.1 in ENE 6 mph 10.3 mph 61% 0 in
22:04 32.2 °F 21.2 °F 30.1 in NE 8.1 mph 11 mph 61% 0 in
22:09 32.2 °F 21.2 °F 30.1 in ENE 7.2 mph 11 mph 61% 0 in
22:14 32.2 °F 21.2 °F 30.1 in ENE 10.3 mph 11 mph 61% 0 in
22:19 32.2 °F 21.2 °F 30.1 in ENE 8.1 mph 10.3 mph 60% 0 in
22:24 32.2 °F 21.2 °F 30.1 in ENE 6.7 mph 9.8 mph 61% 0 in
22:29 32 °F 19.4 °F 30.1 in ENE 8.7 mph 10.1 mph 61% 0 in
22:34 32 °F 19.4 °F 30.1 in NE 7.6 mph 10.1 mph 61% 0 in
22:39 31.8 °F 19.4 °F 30.1 in ENE 7.8 mph 9.8 mph 62% 0 in
22:45 31.8 °F 19.4 °F 30.1 in ENE 7.6 mph 9.8 mph 62% 0 in
22:50 31.6 °F 19.4 °F 30.1 in East 7.8 mph 10.1 mph 62% 0 in
22:55 31.6 °F 19.4 °F 30.1 in ENE 7.6 mph 11.9 mph 62% 0 in
23:00 31.5 °F 19.4 °F 30 in NNE 4.7 mph 11.9 mph 62% 0 in
23:05 31.5 °F 19.4 °F 30 in NE 7.4 mph 12.1 mph 62% 0 in
23:10 31.6 °F 19.4 °F 30 in NE 6.3 mph 12.1 mph 61% 0 in
23:15 31.5 °F 19.4 °F 30.1 in ENE 6 mph 11.2 mph 62% 0 in
23:20 31.5 °F 19.4 °F 30.1 in ENE 8.5 mph 8.7 mph 62% 0 in
23:25 31.3 °F 19.4 °F 30.1 in ENE 8.1 mph 8.5 mph 62% 0 in
23:30 31.3 °F 19.4 °F 30.1 in ENE 7.4 mph 10.5 mph 62% 0 in
23:35 31.3 °F 19.4 °F 30.1 in ENE 8.5 mph 10.5 mph 62% 0 in
23:40 31.1 °F 17.6 °F 30.1 in ENE 6 mph 9.8 mph 62% 0 in
23:45 30.9 °F 17.6 °F 30.1 in NE 6 mph 8.5 mph 62% 0 in
23:50 30.7 °F 19.4 °F 30.1 in ENE 5.8 mph 8.7 mph 63% 0 in
23:55 30.7 °F 19.4 °F 30.1 in ENE 8.5 mph 8.7 mph 63% 0 in
Données Historique de Météo Turbie

Mise a jour : 23/06/2018 12:09:17
Généré par Cumulus 1.9.4 (1099)